![]() |
EMODnet Physics ERDDAP
Easier access to scientific data |
log in|
Brought to you by EMODnet Physics |
| Dataset Title: | NDBC - Collection of dew point temperature (DEWT) TimeSeries - IN SITU MultiPointTimeSeriesObservation
|
| Institution: | NDBC (Dataset ID: TS_DEWT_NDBC) |
| Information: | Summary
| License
| FGDC
| ISO 19115
| Metadata
| Background
| Subset
| Data Access Form
| Make a graph
|
| Name | Last modified | Size | Description | |
|---|---|---|---|---|
| Parent Directory | - | - | ||
| SSBN7_TS_DEWT_012015.nc | 27-Oct-2024 22:31 | 436615 | ||
| SSBN7_TS_DEWT_012016.nc | 27-Oct-2024 22:31 | 587268 | ||
| SSBN7_TS_DEWT_012018.nc | 27-Oct-2024 22:31 | 429520 | ||
| SSBN7_TS_DEWT_012020.nc | 27-Oct-2024 22:31 | 439455 | ||
| SSBN7_TS_DEWT_012022.nc | 27-Oct-2024 22:31 | 440093 | ||
| SSBN7_TS_DEWT_012023.nc | 27-Oct-2024 22:31 | 439305 | ||
| SSBN7_TS_DEWT_012024.nc | 27-Oct-2024 22:31 | 439050 | ||
| SSBN7_TS_DEWT_022015.nc | 27-Oct-2024 22:31 | 431176 | ||
| SSBN7_TS_DEWT_022016.nc | 27-Oct-2024 22:31 | 440059 | ||
| SSBN7_TS_DEWT_022017.nc | 27-Oct-2024 22:31 | 440230 | ||
| SSBN7_TS_DEWT_022018.nc | 27-Oct-2024 22:31 | 430356 | ||
| SSBN7_TS_DEWT_022020.nc | 27-Oct-2024 22:31 | 437609 | ||
| SSBN7_TS_DEWT_022022.nc | 27-Oct-2024 22:31 | 439838 | ||
| SSBN7_TS_DEWT_022023.nc | 27-Oct-2024 22:31 | 440052 | ||
| SSBN7_TS_DEWT_022024.nc | 16-Sep-2024 16:51 | 440082 | ||
| SSBN7_TS_DEWT_032012.nc | 27-Oct-2024 22:31 | 440058 | ||
| SSBN7_TS_DEWT_032013.nc | 27-Oct-2024 22:31 | 440118 | ||
| SSBN7_TS_DEWT_032015.nc | 27-Oct-2024 22:31 | 433983 | ||
| SSBN7_TS_DEWT_032016.nc | 27-Oct-2024 22:32 | 440212 | ||
| SSBN7_TS_DEWT_032017.nc | 27-Oct-2024 22:32 | 429912 | ||
| SSBN7_TS_DEWT_032018.nc | 27-Oct-2024 22:32 | 587130 | ||
| SSBN7_TS_DEWT_032020.nc | 27-Oct-2024 22:32 | 586952 | ||
| SSBN7_TS_DEWT_032021.nc | 27-Oct-2024 22:32 | 438720 | ||
| SSBN7_TS_DEWT_032022.nc | 27-Oct-2024 22:32 | 436282 | ||
| SSBN7_TS_DEWT_032023.nc | 27-Oct-2024 22:32 | 587096 | ||
| SSBN7_TS_DEWT_042012.nc | 27-Oct-2024 22:32 | 587284 | ||
| SSBN7_TS_DEWT_042013.nc | 27-Oct-2024 22:32 | 587286 | ||
| SSBN7_TS_DEWT_042015.nc | 27-Oct-2024 22:32 | 439351 | ||
| SSBN7_TS_DEWT_042017.nc | 27-Oct-2024 22:32 | 437869 | ||
| SSBN7_TS_DEWT_042018.nc | 27-Oct-2024 22:32 | 586961 | ||
| SSBN7_TS_DEWT_042021.nc | 27-Oct-2024 22:32 | 587088 | ||
| SSBN7_TS_DEWT_042022.nc | 27-Oct-2024 22:32 | 587181 | ||
| SSBN7_TS_DEWT_042023.nc | 27-Oct-2024 22:32 | 587146 | ||
| SSBN7_TS_DEWT_052012.nc | 27-Oct-2024 22:32 | 587196 | ||
| SSBN7_TS_DEWT_052013.nc | 27-Oct-2024 22:32 | 587274 | ||
| SSBN7_TS_DEWT_052016.nc | 27-Oct-2024 22:32 | 587294 | ||
| SSBN7_TS_DEWT_052017.nc | 27-Oct-2024 22:32 | 429526 | ||
| SSBN7_TS_DEWT_052018.nc | 27-Oct-2024 22:33 | 440049 | ||
| SSBN7_TS_DEWT_052021.nc | 27-Oct-2024 22:33 | 439262 | ||
| SSBN7_TS_DEWT_052022.nc | 27-Oct-2024 22:33 | 430366 | ||
| SSBN7_TS_DEWT_052023.nc | 27-Oct-2024 22:33 | 439459 | ||
| SSBN7_TS_DEWT_062012.nc | 27-Oct-2024 22:33 | 440113 | ||
| SSBN7_TS_DEWT_062013.nc | 27-Oct-2024 22:33 | 438645 | ||
| SSBN7_TS_DEWT_062015.nc | 27-Oct-2024 22:33 | 440194 | ||
| SSBN7_TS_DEWT_062016.nc | 27-Oct-2024 22:33 | 439736 | ||
| SSBN7_TS_DEWT_062017.nc | 27-Oct-2024 22:33 | 440031 | ||
| SSBN7_TS_DEWT_062018.nc | 27-Oct-2024 22:33 | 439732 | ||
| SSBN7_TS_DEWT_062021.nc | 27-Oct-2024 22:33 | 428290 | ||
| SSBN7_TS_DEWT_062022.nc | 27-Oct-2024 22:33 | 439237 | ||
| SSBN7_TS_DEWT_062023.nc | 27-Oct-2024 22:33 | 440136 | ||
| SSBN7_TS_DEWT_072013.nc | 27-Oct-2024 22:33 | 440236 | ||
| SSBN7_TS_DEWT_072014.nc | 27-Oct-2024 22:33 | 440236 | ||
| SSBN7_TS_DEWT_072015.nc | 27-Oct-2024 22:33 | 428375 | ||
| SSBN7_TS_DEWT_072016.nc | 27-Oct-2024 22:33 | 587096 | ||
| SSBN7_TS_DEWT_072017.nc | 27-Oct-2024 22:33 | 440389 | ||
| SSBN7_TS_DEWT_072018.nc | 27-Oct-2024 22:33 | 421896 | ||
| SSBN7_TS_DEWT_072021.nc | 27-Oct-2024 22:34 | 587336 | ||
| SSBN7_TS_DEWT_072022.nc | 27-Oct-2024 22:34 | 431430 | ||
| SSBN7_TS_DEWT_072023.nc | 27-Oct-2024 22:34 | 440218 | ||
| SSBN7_TS_DEWT_082012.nc | 27-Oct-2024 22:34 | 587293 | ||
| SSBN7_TS_DEWT_082013.nc | 27-Oct-2024 22:34 | 435922 | ||
| SSBN7_TS_DEWT_082014.nc | 27-Oct-2024 22:34 | 587232 | ||
| SSBN7_TS_DEWT_082015.nc | 27-Oct-2024 22:34 | 587081 | ||
| SSBN7_TS_DEWT_082016.nc | 27-Oct-2024 22:34 | 440293 | ||
| SSBN7_TS_DEWT_082017.nc | 27-Oct-2024 22:34 | 587158 | ||
| SSBN7_TS_DEWT_082018.nc | 27-Oct-2024 22:34 | 587110 | ||
| SSBN7_TS_DEWT_082020.nc | 27-Oct-2024 22:34 | 587248 | ||
| SSBN7_TS_DEWT_082021.nc | 27-Oct-2024 22:34 | 587301 | ||
| SSBN7_TS_DEWT_082022.nc | 27-Oct-2024 22:34 | 438610 | ||
| SSBN7_TS_DEWT_082023.nc | 27-Oct-2024 22:34 | 587967 | ||
| SSBN7_TS_DEWT_092012.nc | 27-Oct-2024 22:34 | 587812 | ||
| SSBN7_TS_DEWT_092013.nc | 27-Oct-2024 22:34 | 587869 | ||
| SSBN7_TS_DEWT_092014.nc | 27-Oct-2024 22:34 | 439962 | ||
| SSBN7_TS_DEWT_092015.nc | 27-Oct-2024 22:34 | 440172 | ||
| SSBN7_TS_DEWT_092016.nc | 27-Oct-2024 22:34 | 587929 | ||
| SSBN7_TS_DEWT_092017.nc | 27-Oct-2024 22:34 | 588013 | ||
| SSBN7_TS_DEWT_092018.nc | 27-Oct-2024 22:34 | 438071 | ||
| SSBN7_TS_DEWT_092020.nc | 27-Oct-2024 22:35 | 588100 | ||
| SSBN7_TS_DEWT_092021.nc | 27-Oct-2024 22:35 | 439839 | ||
| SSBN7_TS_DEWT_092022.nc | 27-Oct-2024 22:35 | 439830 | ||
| SSBN7_TS_DEWT_092023.nc | 27-Oct-2024 22:35 | 588086 | ||
| SSBN7_TS_DEWT_102013.nc | 27-Oct-2024 22:35 | 588033 | ||
| SSBN7_TS_DEWT_102014.nc | 27-Oct-2024 22:35 | 588189 | ||
| SSBN7_TS_DEWT_102015.nc | 27-Oct-2024 22:35 | 588106 | ||
| SSBN7_TS_DEWT_102016.nc | 27-Oct-2024 22:35 | 440023 | ||
| SSBN7_TS_DEWT_102017.nc | 27-Oct-2024 22:35 | 438620 | ||
| SSBN7_TS_DEWT_102018.nc | 27-Oct-2024 22:35 | 438085 | ||
| SSBN7_TS_DEWT_102020.nc | 27-Oct-2024 22:35 | 438388 | ||
| SSBN7_TS_DEWT_102021.nc | 27-Oct-2024 22:35 | 438947 | ||
| SSBN7_TS_DEWT_102022.nc | 27-Oct-2024 22:35 | 438482 | ||
| SSBN7_TS_DEWT_102023.nc | 27-Oct-2024 22:35 | 438578 | ||
| SSBN7_TS_DEWT_112014.nc | 27-Oct-2024 22:35 | 438294 | ||
| SSBN7_TS_DEWT_112015.nc | 27-Oct-2024 22:35 | 438923 | ||
| SSBN7_TS_DEWT_112016.nc | 27-Oct-2024 22:35 | 438573 | ||
| SSBN7_TS_DEWT_112018.nc | 27-Oct-2024 22:35 | 438068 | ||
| SSBN7_TS_DEWT_112020.nc | 27-Oct-2024 22:35 | 423255 | ||
| SSBN7_TS_DEWT_112021.nc | 27-Oct-2024 22:35 | 439401 | ||
| SSBN7_TS_DEWT_112022.nc | 27-Oct-2024 22:35 | 438721 | ||
| SSBN7_TS_DEWT_112023.nc | 27-Oct-2024 22:35 | 438796 | ||
| SSBN7_TS_DEWT_122014.nc | 27-Oct-2024 22:36 | 438800 | ||
| SSBN7_TS_DEWT_122015.nc | 27-Oct-2024 22:36 | 419669 | ||
| SSBN7_TS_DEWT_122016.nc | 27-Oct-2024 22:36 | 587823 | ||
| SSBN7_TS_DEWT_122021.nc | 27-Oct-2024 22:36 | 440364 | ||
| SSBN7_TS_DEWT_122022.nc | 27-Oct-2024 22:36 | 439703 | ||
| SSBN7_TS_DEWT_122023.nc | 27-Oct-2024 22:36 | 440274 | ||